| time (UTC) | temp F | wind direction | speed MPH | gust MPH | rain 1hr in | rain 24hr in | rain mn in | humidity % | barometer mb |
| 20260507010510 | 63 | 221 | 1.0 | 4.0 | 0.00 | 0.00 | 0.00 | 83 | 1009.1 |
| 20260507010005 | 63 | 230 | 1.0 | 4.0 | 0.00 | 0.00 | 0.00 | 83 | 1009.2 |
| 20260507005508 | 63 | 270 | 1.0 | 3.0 | 0.00 | 0.00 | 0.00 | 83 | 1008.9 |
| 20260507005007 | 64 | 219 | 1.0 | 4.0 | 0.00 | 0.00 | 0.00 | 82 | 1009.0 |
| 20260507004505 | 64 | 301 | 1.0 | 5.0 | 0.00 | 0.00 | 0.00 | 83 | 1008.9 |
| 20260507004005 | 64 | 232 | 2.0 | 5.0 | 0.00 | 0.00 | 0.00 | 83 | 1008.7 |
| 20260507003507 | 64 | 242 | 2.0 | 6.0 | 0.00 | 0.00 | 0.00 | 83 | 1008.7 |
| 20260507003004 | 63 | 240 | 3.0 | 6.0 | 0.00 | 0.00 | 0.00 | 83 | 1008.4 |
| 20260507002504 | 63 | 219 | 2.0 | 4.0 | 0.00 | 0.00 | 0.00 | 83 | 1008.4 |
| 20260507002004 | 64 | 228 | 1.0 | 4.0 | 0.00 | 0.00 | 0.00 | 82 | 1008.4 |
| 20260507001503 | 64 | 236 | 2.0 | 4.0 | 0.00 | 0.00 | 0.00 | 82 | 1008.3 |
| 20260507001006 | 64 | 220 | 1.0 | 4.0 | 0.00 | 0.00 | 0.00 | 81 | 1008.4 |
| 20260507000504 | 64 | 229 | 2.0 | 4.0 | 0.00 | 0.00 | 0.00 | 81 | 1008.3 |
| 20260507000003 | 65 | 233 | 1.0 | 4.0 | 0.00 | 0.00 | 0.00 | 80 | 1008.3 |
| 20260506235504 | 65 | 227 | 2.0 | 4.0 | 0.00 | 0.00 | 0.00 | 80 | 1008.4 |
| 20260506235003 | 65 | 223 | 2.0 | 4.0 | 0.00 | 0.00 | 0.00 | 80 | 1008.4 |
| 20260506234504 | 65 | 246 | 1.0 | 8.0 | 0.00 | 0.00 | 0.00 | 79 | 1008.4 |
| 20260506234002 | 66 | 229 | 2.0 | 8.0 | 0.00 | 0.00 | 0.00 | 79 | 1008.4 |
| 20260506233503 | 66 | 246 | 3.0 | 6.0 | 0.00 | 0.00 | 0.00 | 78 | 1008.5 |
| 20260506233002 | 66 | 236 | 3.0 | 7.0 | 0.00 | 0.00 | 0.00 | 78 | 1008.4 |
| 20260506232501 | 66 | 236 | 3.0 | 8.0 | 0.00 | 0.00 | 0.00 | 78 | 1008.4 |
| 20260506232001 | 67 | 255 | 2.0 | 9.0 | 0.00 | 0.00 | 0.00 | 78 | 1008.4 |
| 20260506231501 | 67 | 232 | 2.0 | 7.0 | 0.00 | 0.00 | 0.00 | 77 | 1008.4 |
| 20260506231001 | 67 | 234 | 3.0 | 7.0 | 0.00 | 0.00 | 0.00 | 77 | 1008.5 |
| 20260506230501 | 67 | 221 | 0.0 | 7.0 | 0.00 | 0.00 | 0.00 | 77 | 1008.4 |
| 20260506230001 | 67 | 248 | 1.0 | 7.0 | 0.00 | 0.00 | 0.00 | 77 | 1008.5 |
| 20260506225604 | 67 | 209 | 0.0 | 10.0 | 0.00 | 0.00 | 0.00 | 77 | 1008.5 |
| 20260506225100 | 67 | 206 | 0.0 | 10.0 | 0.00 | 0.00 | 0.00 | 77 | 1008.5 |
| 20260506224607 | 67 | 263 | 2.0 | 8.0 | 0.00 | 0.00 | 0.00 | 77 | 1008.4 |
| 20260506224059 | 67 | 227 | 2.0 | 8.0 | 0.00 | 0.00 | 0.00 | 77 | 1008.1 |
| 20260506223559 | 67 | 235 | 3.0 | 8.0 | 0.00 | 0.00 | 0.00 | 77 | 1008.2 |
| 20260506223100 | 67 | 194 | 0.0 | 5.0 | 0.00 | 0.00 | 0.00 | 76 | 1008.3 |
| 20260506222559 | 67 | 256 | 0.0 | 8.0 | 0.00 | 0.00 | 0.00 | 76 | 1008.2 |
| 20260506222100 | 67 | 219 | 1.0 | 9.0 | 0.00 | 0.00 | 0.00 | 76 | 1008.3 |
| 20260506221559 | 67 | 246 | 3.0 | 9.0 | 0.00 | 0.00 | 0.00 | 76 | 1008.2 |
| 20260506221058 | 67 | 223 | 2.0 | 7.0 | 0.00 | 0.00 | 0.00 | 76 | 1008.3 |
| 20260506220558 | 67 | 248 | 0.0 | 1.0 | 0.00 | 0.00 | 0.00 | 76 | 1008.3 |
| 20260506215558 | 67 | 254 | 3.0 | 12.0 | 0.00 | 0.00 | 0.00 | 75 | 1008.3 |
| 20260506215057 | 68 | 248 | 2.0 | 8.0 | 0.00 | 0.00 | 0.00 | 75 | 1008.2 |
| 20260506214559 | 68 | 235 | 5.0 | 9.0 | 0.00 | 0.00 | 0.00 | 75 | 1008.2 |
| 20260506214057 | 68 | 225 | 5.0 | 9.0 | 0.00 | 0.00 | 0.00 | 75 | 1008.2 |
| 20260506213558 | 68 | 216 | 0.0 | 3.0 | 0.00 | 0.00 | 0.00 | 75 | 1008.1 |
| 20260506213101 | 68 | 239 | 0.0 | 1.0 | 0.00 | 0.00 | 0.00 | 75 | 1008.0 |
| 20260506212557 | 68 | 211 | 0.0 | 1.0 | 0.00 | 0.00 | 0.00 | 75 | 1008.0 |
| 20260506212058 | 68 | 244 | 0.0 | 14.0 | 0.00 | 0.00 | 0.00 | 75 | 1007.9 |
| 20260506211557 | 68 | 225 | 0.0 | 14.0 | 0.00 | 0.00 | 0.00 | 74 | 1007.8 |
| 20260506211056 | 68 | 236 | 8.0 | 18.0 | 0.00 | 0.00 | 0.00 | 73 | 1007.8 |
| 20260506210557 | 69 | 279 | 8.0 | 16.0 | 0.00 | 0.00 | 0.00 | 72 | 1007.7 |
| 20260506210056 | 70 | 213 | 10.0 | 16.0 | 0.00 | 0.00 | 0.00 | 71 | 1007.7 |
| 20260506205555 | 70 | 226 | 7.0 | 16.0 | 0.00 | 0.00 | 0.00 | 72 | 1007.6 |
| 20260506205055 | 70 | 213 | 9.0 | 18.0 | 0.00 | 0.00 | 0.00 | 72 | 1007.6 |
| 20260506204556 | 70 | 217 | 10.0 | 18.0 | 0.00 | 0.00 | 0.00 | 73 | 1007.5 |
| 20260506204055 | 69 | 247 | 9.0 | 18.0 | 0.00 | 0.00 | 0.00 | 73 | 1007.4 |
| 20260506203554 | 69 | 209 | 8.0 | 18.0 | 0.00 | 0.00 | 0.00 | 73 | 1007.4 |
| 20260506203054 | 68 | 229 | 10.0 | 16.0 | 0.00 | 0.00 | 0.00 | 73 | 1007.5 |
| 20260506202554 | 68 | 240 | 9.0 | 17.0 | 0.00 | 0.00 | 0.00 | 74 | 1007.5 |
| 20260506202053 | 68 | 217 | 7.0 | 17.0 | 0.00 | 0.00 | 0.00 | 74 | 1007.6 |
| 20260506201556 | 68 | 238 | 9.0 | 18.0 | 0.00 | 0.00 | 0.00 | 74 | 1007.6 |
| 20260506201052 | 68 | 235 | 10.0 | 18.0 | 0.00 | 0.00 | 0.00 | 74 | 1007.7 |
| 20260506200552 | 67 | 222 | 6.0 | 12.0 | 0.00 | 0.00 | 0.00 | 74 | 1007.7 |
| 20260506200051 | 67 | 217 | 7.0 | 17.0 | 0.00 | 0.00 | 0.00 | 74 | 1007.8 |
| 20260506195551 | 68 | 225 | 8.0 | 17.0 | 0.00 | 0.00 | 0.00 | 74 | 1007.9 |
| 20260506195050 | 68 | 195 | 9.0 | 16.0 | 0.00 | 0.00 | 0.00 | 74 | 1007.9 |
| 20260506194551 | 68 | 228 | 10.0 | 20.0 | 0.00 | 0.00 | 0.00 | 74 | 1007.9 |
| 20260506194051 | 68 | 218 | 11.0 | 20.0 | 0.00 | 0.00 | 0.00 | 74 | 1008.0 |
| 20260506193553 | 67 | 238 | 10.0 | 18.0 | 0.00 | 0.00 | 0.00 | 74 | 1008.1 |
| 20260506193048 | 67 | 230 | 10.0 | 19.0 | 0.00 | 0.00 | 0.00 | 74 | 1008.2 |
| 20260506192547 | 67 | 235 | 9.0 | 20.0 | 0.00 | 0.00 | 0.00 | 74 | 1008.4 |
| 20260506192048 | 67 | 236 | 10.0 | 20.0 | 0.00 | 0.00 | 0.00 | 74 | 1008.4 |
| 20260506191548 | 67 | 232 | 11.0 | 19.0 | 0.00 | 0.00 | 0.00 | 74 | 1008.4 |
| 20260506191047 | 67 | 228 | 11.0 | 22.0 | 0.00 | 0.00 | 0.00 | 74 | 1008.4 |
| 20260506190547 | 68 | 219 | 13.0 | 23.0 | 0.00 | 0.00 | 0.00 | 73 | 1008.6 |
| 20260506190049 | 68 | 223 | 13.0 | 23.0 | 0.00 | 0.00 | 0.00 | 73 | 1008.4 |
| 20260506185545 | 68 | 219 | 13.0 | 23.0 | 0.00 | 0.00 | 0.00 | 73 | 1008.5 |
| 20260506185044 | 68 | 190 | 12.0 | 23.0 | 0.00 | 0.00 | 0.00 | 73 | 1008.6 |
| 20260506184549 | 68 | 229 | 12.0 | 23.0 | 0.00 | 0.00 | 0.00 | 73 | 1008.7 |
| 20260506184043 | 68 | 241 | 12.0 | 23.0 | 0.00 | 0.00 | 0.00 | 73 | 1008.8 |
| 20260506183545 | 68 | 238 | 13.0 | 25.0 | 0.00 | 0.00 | 0.00 | 72 | 1008.8 |
| 20260506183042 | 69 | 215 | 15.0 | 24.0 | 0.00 | 0.00 | 0.00 | 71 | 1008.9 |
| 20260506182541 | 69 | 237 | 14.0 | 25.0 | 0.00 | 0.00 | 0.00 | 71 | 1008.8 |
| 20260506182041 | 68 | 240 | 12.0 | 19.0 | 0.00 | 0.00 | 0.00 | 72 | 1008.9 |
| 20260506181541 | 68 | 219 | 11.0 | 19.0 | 0.00 | 0.00 | 0.00 | 73 | 1008.9 |
| 20260506181040 | 67 | 245 | 11.0 | 16.0 | 0.00 | 0.00 | 0.00 | 74 | 1009.0 |
| 20260506180539 | 67 | 184 | 9.0 | 17.0 | 0.00 | 0.00 | 0.00 | 75 | 1008.9 |
| 20260506180043 | 66 | 234 | 8.0 | 19.0 | 0.00 | 0.00 | 0.00 | 76 | 1009.0 |
| 20260506175539 | 66 | 201 | 7.0 | 19.0 | 0.00 | 0.00 | 0.00 | 77 | 1009.0 |
| 20260506175038 | 65 | 217 | 6.0 | 16.0 | 0.00 | 0.00 | 0.00 | 78 | 1009.2 |
| 20260506174537 | 66 | 238 | 7.0 | 16.0 | 0.00 | 0.00 | 0.00 | 76 | 1009.2 |
| 20260506174038 | 66 | 207 | 8.0 | 16.0 | 0.00 | 0.00 | 0.00 | 76 | 1009.4 |
| 20260506173538 | 66 | 219 | 6.0 | 14.0 | 0.00 | 0.00 | 0.00 | 75 | 1009.4 |
| 20260506173058 | 66 | 198 | 7.0 | 20.0 | 0.00 | 0.00 | 0.00 | 74 | 1009.4 |
| 20260506172537 | 67 | 222 | 8.0 | 13.0 | 0.00 | 0.00 | 0.00 | 73 | 1009.4 |
| 20260506172037 | 67 | 168 | 7.0 | 19.0 | 0.00 | 0.00 | 0.00 | 73 | 1009.3 |
| 20260506171537 | 67 | 228 | 8.0 | 19.0 | 0.00 | 0.00 | 0.00 | 73 | 1009.3 |
| 20260506171038 | 67 | 240 | 8.0 | 16.0 | 0.00 | 0.00 | 0.00 | 74 | 1009.4 |
| 20260506170536 | 67 | 192 | 9.0 | 19.0 | 0.00 | 0.00 | 0.00 | 73 | 1009.5 |
| 20260506170039 | 67 | 232 | 10.0 | 18.0 | 0.00 | 0.00 | 0.00 | 72 | 1009.4 |
| 20260506165533 | 68 | 240 | 9.0 | 18.0 | 0.00 | 0.00 | 0.00 | 71 | 1009.8 |
| 20260506165033 | 68 | 218 | 0.0 | 3.0 | 0.00 | 0.00 | 0.00 | 70 | 1009.9 |
| 20260506164534 | 69 | 227 | 0.0 | 3.0 | 0.00 | 0.00 | 0.00 | 70 | 1010.1 |
| 20260506164031 | 69 | 248 | 0.0 | 0.0 | 0.00 | 0.00 | 0.00 | 69 | 1010.2 |
| 20260506163535 | 69 | 225 | 0.0 | 0.0 | 0.00 | 0.00 | 0.00 | 69 | 1010.3 |
| 20260506163037 | 69 | 233 | 0.0 | 0.0 | 0.00 | 0.00 | 0.00 | 69 | 1010.4 |
| 20260506162530 | 69 | 223 | 0.0 | 0.0 | 0.00 | 0.00 | 0.00 | 68 | 1010.4 |
| 20260506162033 | 69 | 209 | 0.0 | 0.0 | 0.00 | 0.00 | 0.00 | 69 | 1010.5 |
| 20260506161530 | 69 | 207 | 0.0 | 0.0 | 0.00 | 0.00 | 0.00 | 69 | 1010.4 |
| 20260506161031 | 69 | 219 | 0.0 | 0.0 | 0.00 | 0.00 | 0.00 | 69 | 1010.5 |
| 20260506160529 | 69 | 225 | 0.0 | 0.0 | 0.00 | 0.00 | 0.00 | 68 | 1010.5 |
| 20260506160030 | 69 | 206 | 0.0 | 0.0 | 0.00 | 0.00 | 0.00 | 68 | 1010.5 |
| 20260506155528 | 69 | 213 | 0.0 | 0.0 | 0.00 | 0.00 | 0.00 | 69 | 1010.4 |
| 20260506155028 | 69 | 213 | 0.0 | 0.0 | 0.00 | 0.00 | 0.00 | 68 | 1010.6 |
| 20260506154527 | 70 | 218 | 0.0 | 0.0 | 0.00 | 0.00 | 0.00 | 68 | 1010.6 |
| 20260506154027 | 70 | 202 | 0.0 | 0.0 | 0.00 | 0.00 | 0.00 | 68 | 1010.7 |
| 20260506153528 | 70 | 213 | 0.0 | 0.0 | 0.00 | 0.00 | 0.00 | 67 | 1010.7 |
| 20260506153028 | 70 | 217 | 0.0 | 0.0 | 0.00 | 0.00 | 0.00 | 68 | 1010.7 |
| 20260506152528 | 70 | 248 | 0.0 | 0.0 | 0.00 | 0.00 | 0.00 | 67 | 1010.7 |
| 20260506152027 | 71 | 209 | 0.0 | 0.0 | 0.00 | 0.00 | 0.00 | 69 | 1010.8 |
| 20260506151528 | 70 | 192 | 0.0 | 0.0 | 0.00 | 0.00 | 0.00 | 69 | 1010.8 |
| 20260506151030 | 71 | 185 | 0.0 | 0.0 | 0.00 | 0.00 | 0.00 | 69 | 1010.6 |
| 20260506150528 | 71 | 223 | 0.0 | 0.0 | 0.00 | 0.00 | 0.00 | 68 | 1010.6 |
| 20260506150026 | 71 | 236 | 0.0 | 0.0 | 0.00 | 0.00 | 0.00 | 67 | 1010.6 |
| 20260506145525 | 71 | 203 | 0.0 | 0.0 | 0.00 | 0.00 | 0.00 | 63 | 1010.5 |
| 20260506145025 | 71 | 212 | 0.0 | 0.0 | 0.00 | 0.00 | 0.00 | 64 | 1010.6 |
| 20260506144529 | 71 | 234 | 0.0 | 0.0 | 0.00 | 0.00 | 0.00 | 65 | 1010.7 |
| 20260506144023 | 71 | 210 | 0.0 | 0.0 | 0.00 | 0.00 | 0.00 | 66 | 1010.7 |
| 20260506143522 | 70 | 196 | 0.0 | 0.0 | 0.00 | 0.00 | 0.00 | 66 | 1011.0 |
| 20260506143025 | 70 | 252 | 0.0 | 0.0 | 0.00 | 0.00 | 0.00 | 69 | 1011.0 |
| 20260506142520 | 70 | 229 | 0.0 | 0.0 | 0.00 | 0.00 | 0.00 | 68 | 1011.1 |
| 20260506142020 | 70 | 240 | 0.0 | 0.0 | 0.00 | 0.00 | 0.00 | 68 | 1010.9 |
| 20260506141519 | 70 | 227 | 0.0 | 0.0 | 0.00 | 0.00 | 0.00 | 68 | 1010.9 |
| 20260506141020 | 69 | 235 | 0.0 | 0.0 | 0.00 | 0.00 | 0.00 | 69 | 1011.0 |
| 20260506140518 | 69 | 208 | 0.0 | 0.0 | 0.00 | 0.00 | 0.00 | 67 | 1010.9 |
| 20260506140018 | 69 | 228 | 0.0 | 20.0 | 0.00 | 0.00 | 0.00 | 68 | 1010.9 |
| 20260506135516 | 69 | 217 | 4.0 | 20.0 | 0.00 | 0.00 | 0.00 | 68 | 1010.9 |
| 20260506135016 | 69 | 225 | 9.0 | 17.0 | 0.00 | 0.00 | 0.00 | 67 | 1010.9 |
| 20260506134515 | 68 | 244 | 7.0 | 16.0 | 0.00 | 0.00 | 0.00 | 69 | 1010.9 |
| 20260506134015 | 68 | 214 | 6.0 | 15.0 | 0.00 | 0.00 | 0.00 | 69 | 1011.0 |
| 20260506133518 | 68 | 236 | 9.0 | 16.0 | 0.00 | 0.00 | 0.00 | 69 | 1011.0 |
| 20260506133012 | 68 | 235 | 6.0 | 15.0 | 0.00 | 0.00 | 0.00 | 70 | 1011.1 |
| 20260506132517 | 67 | 221 | 4.0 | 16.0 | 0.00 | 0.00 | 0.00 | 69 | 1011.1 |
| 20260506132011 | 67 | 228 | 9.0 | 16.0 | 0.00 | 0.00 | 0.00 | 70 | 1011.2 |
| 20260506131512 | 67 | 231 | 7.0 | 17.0 | 0.00 | 0.00 | 0.00 | 71 | 1011.3 |
| 20260506131011 | 67 | 239 | 10.0 | 17.0 | 0.00 | 0.00 | 0.00 | 70 | 1011.4 |
| 20260506130511 | 67 | 238 | 7.0 | 16.0 | 0.00 | 0.00 | 0.00 | 71 | 1011.4 |
| 20260506130011 | 67 | 244 | 4.0 | 18.0 | 0.00 | 0.00 | 0.00 | 71 | 1011.3 |
| 20260506125510 | 67 | 217 | 9.0 | 18.0 | 0.00 | 0.00 | 0.00 | 71 | 1011.5 |
| 20260506125010 | 67 | 240 | 3.0 | 17.0 | 0.00 | 0.00 | 0.00 | 70 | 1011.5 |
| 20260506124510 | 67 | 232 | 10.0 | 19.0 | 0.00 | 0.00 | 0.00 | 70 | 1011.3 |
| 20260506124008 | 67 | 234 | 9.0 | 19.0 | 0.00 | 0.00 | 0.00 | 70 | 1011.3 |
| 20260506123507 | 66 | 228 | 11.0 | 19.0 | 0.00 | 0.00 | 0.00 | 72 | 1011.3 |
| 20260506123006 | 66 | 231 | 10.0 | 19.0 | 0.00 | 0.00 | 0.00 | 73 | 1011.4 |
| 20260506122506 | 66 | 215 | 10.0 | 18.0 | 0.00 | 0.00 | 0.00 | 72 | 1011.3 |
| 20260506122004 | 65 | 234 | 10.0 | 16.0 | 0.00 | 0.00 | 0.00 | 73 | 1011.3 |
| 20260506121509 | 65 | 212 | 7.0 | 13.0 | 0.00 | 0.00 | 0.00 | 74 | 1011.3 |
| 20260506121002 | 65 | 218 | 7.0 | 18.0 | 0.00 | 0.00 | 0.00 | 75 | 1011.3 |
| 20260506120502 | 64 | 211 | 10.0 | 18.0 | 0.00 | 0.00 | 0.00 | 74 | 1011.2 |
| 20260506120002 | 64 | 226 | 9.0 | 16.0 | 0.00 | 0.00 | 0.00 | 74 | 1011.1 |
| 20260506115502 | 64 | 188 | 10.0 | 17.0 | 0.00 | 0.00 | 0.00 | 74 | 1011.1 |
| 20260506115002 | 64 | 207 | 8.0 | 18.0 | 0.00 | 0.00 | 0.00 | 73 | 1011.1 |
| 20260506114501 | 65 | 184 | 10.0 | 18.0 | 0.00 | 0.00 | 0.00 | 74 | 1011.0 |
| 20260506114100 | 64 | 200 | 10.0 | 21.0 | 0.00 | 0.00 | 0.00 | 74 | 1011.0 |
| 20260506113559 | 64 | 226 | 10.0 | 20.0 | 0.00 | 0.00 | 0.00 | 75 | 1011.0 |
| 20260506113100 | 64 | 221 | 9.0 | 16.0 | 0.00 | 0.00 | 0.00 | 75 | 1011.1 |
| 20260506112558 | 64 | 229 | 6.0 | 16.0 | 0.00 | 0.00 | 0.00 | 76 | 1011.1 |
| 20260506112056 | 63 | 217 | 7.0 | 18.0 | 0.00 | 0.00 | 0.00 | 76 | 1011.1 |
| 20260506111557 | 63 | 224 | 9.0 | 18.0 | 0.00 | 0.00 | 0.00 | 76 | 1011.1 |
| 20260506111058 | 63 | 206 | 7.0 | 18.0 | 0.00 | 0.00 | 0.00 | 77 | 1011.1 |
| 20260506110555 | 63 | 258 | 8.0 | 14.0 | 0.00 | 0.00 | 0.00 | 77 | 1011.2 |
| 20260506110101 | 62 | 234 | 7.0 | 17.0 | 0.00 | 0.00 | 0.00 | 78 | 1011.2 |
| 20260506105555 | 62 | 204 | 9.0 | 17.0 | 0.00 | 0.00 | 0.00 | 78 | 1011.3 |
| 20260506105056 | 62 | 234 | 8.0 | 16.0 | 0.00 | 0.00 | 0.00 | 79 | 1011.4 |
| 20260506104558 | 61 | 225 | 7.0 | 15.0 | 0.00 | 0.00 | 0.00 | 80 | 1011.3 |
| 20260506104055 | 61 | 213 | 6.0 | 12.0 | 0.00 | 0.00 | 0.00 | 81 | 1011.3 |
| 20260506103555 | 60 | 216 | 5.0 | 18.0 | 0.00 | 0.00 | 0.00 | 82 | 1011.2 |
| 20260506103059 | 60 | 196 | 6.0 | 18.0 | 0.00 | 0.00 | 0.00 | 81 | 1011.3 |
| 20260506102559 | 60 | 226 | 7.0 | 18.0 | 0.00 | 0.00 | 0.00 | 82 | 1011.3 |
| 20260506102054 | 60 | 219 | 7.0 | 18.0 | 0.00 | 0.00 | 0.00 | 82 | 1011.3 |
| 20260506101603 | 60 | 219 | 7.0 | 17.0 | 0.00 | 0.00 | 0.00 | 82 | 1011.1 |
| 20260506101053 | 60 | 207 | 7.0 | 13.0 | 0.00 | 0.00 | 0.00 | 82 | 1011.2 |
| 20260506100552 | 60 | 205 | 6.0 | 12.0 | 0.00 | 0.00 | 0.00 | 83 | 1011.1 |
| 20260506100109 | 60 | 213 | 6.0 | 12.0 | 0.00 | 0.00 | 0.00 | 83 | 1011.1 |
| 20260506095553 | 60 | 224 | 7.0 | 13.0 | 0.00 | 0.00 | 0.00 | 83 | 1011.2 |
| 20260506095052 | 60 | 236 | 6.0 | 11.0 | 0.00 | 0.00 | 0.00 | 83 | 1011.1 |
| 20260506094551 | 60 | 225 | 7.0 | 14.0 | 0.00 | 0.00 | 0.00 | 83 | 1011.1 |
| 20260506094049 | 59 | 207 | 7.0 | 14.0 | 0.00 | 0.00 | 0.00 | 83 | 1011.2 |
| 20260506093547 | 59 | 227 | 6.0 | 11.0 | 0.00 | 0.00 | 0.00 | 83 | 1011.2 |
| 20260506093050 | 60 | 205 | 5.0 | 13.0 | 0.00 | 0.00 | 0.00 | 83 | 1011.2 |
| 20260506092545 | 60 | 225 | 6.0 | 11.0 | 0.00 | 0.00 | 0.00 | 83 | 1011.2 |
| 20260506092044 | 60 | 226 | 6.0 | 12.0 | 0.00 | 0.00 | 0.00 | 82 | 1011.2 |
| 20260506091544 | 60 | 187 | 7.0 | 12.0 | 0.00 | 0.00 | 0.00 | 82 | 1011.2 |
| 20260506091043 | 60 | 226 | 6.0 | 14.0 | 0.00 | 0.00 | 0.00 | 82 | 1011.2 |
| 20260506090543 | 60 | 221 | 6.0 | 14.0 | 0.00 | 0.00 | 0.00 | 82 | 1011.2 |
| 20260506090044 | 60 | 240 | 7.0 | 14.0 | 0.00 | 0.00 | 0.00 | 82 | 1011.4 |
| 20260506085540 | 60 | 227 | 7.0 | 12.0 | 0.00 | 0.00 | 0.00 | 82 | 1011.3 |
| 20260506085040 | 61 | 190 | 7.0 | 12.0 | 0.00 | 0.00 | 0.00 | 81 | 1011.4 |
| 20260506084600 | 61 | 198 | 6.0 | 17.0 | 0.00 | 0.00 | 0.00 | 81 | 1011.5 |
| 20260506084039 | 61 | 238 | 6.0 | 17.0 | 0.00 | 0.00 | 0.00 | 81 | 1011.4 |
| 20260506083539 | 61 | 239 | 6.0 | 14.0 | 0.00 | 0.00 | 0.00 | 81 | 1011.5 |
| 20260506083039 | 61 | 214 | 8.0 | 16.0 | 0.00 | 0.00 | 0.00 | 81 | 1011.6 |
| 20260506082538 | 61 | 221 | 8.0 | 16.0 | 0.00 | 0.00 | 0.00 | 81 | 1011.6 |
| 20260506082036 | 61 | 178 | 7.0 | 15.0 | 0.00 | 0.00 | 0.00 | 81 | 1011.6 |
| 20260506081541 | 61 | 236 | 8.0 | 16.0 | 0.00 | 0.00 | 0.00 | 81 | 1011.6 |
| 20260506081035 | 61 | 216 | 7.0 | 16.0 | 0.00 | 0.00 | 0.00 | 81 | 1011.6 |
| 20260506080534 | 61 | 217 | 9.0 | 16.0 | 0.00 | 0.00 | 0.00 | 81 | 1011.5 |
| 20260506073040 | 61 | 209 | 6.0 | 15.0 | 0.00 | 0.00 | 0.00 | 81 | 1011.5 |
| 20260506072530 | 61 | 209 | 8.0 | 15.0 | 0.00 | 0.00 | 0.00 | 81 | 1011.4 |
| 20260506072031 | 61 | 214 | 8.0 | 13.0 | 0.00 | 0.00 | 0.00 | 81 | 1011.5 |
| 20260506071530 | 61 | 220 | 8.0 | 15.0 | 0.00 | 0.00 | 0.00 | 81 | 1011.5 |
| 20260506071028 | 61 | 227 | 8.0 | 14.0 | 0.00 | 0.00 | 0.00 | 81 | 1011.5 |
| 20260506070528 | 61 | 218 | 9.0 | 16.0 | 0.00 | 0.00 | 0.00 | 81 | 1011.6 |
| 20260506062018 | 61 | 205 | 8.0 | 14.0 | 0.00 | 0.00 | 0.00 | 81 | 1011.7 |
| 20260506061517 | 61 | 215 | 7.0 | 14.0 | 0.00 | 0.00 | 0.00 | 81 | 1011.7 |
| 20260506061017 | 61 | 215 | 6.0 | 12.0 | 0.00 | 0.00 | 0.00 | 81 | 1011.7 |
| 20260506060517 | 61 | 213 | 8.0 | 12.0 | 0.00 | 0.00 | 0.00 | 81 | 1011.7 |
| 20260506051003 | 62 | 213 | 9.0 | 16.0 | 0.00 | 0.00 | 0.00 | 79 | 1012.1 |
| 20260506050501 | 62 | 215 | 8.0 | 16.0 | 0.00 | 0.00 | 0.00 | 78 | 1012.2 |
| 20260506045057 | 63 | 207 | 8.0 | 15.0 | 0.00 | 0.00 | 0.00 | 78 | 1012.3 |
| 20260506044703 | 63 | 225 | 7.0 | 15.0 | 0.00 | 0.00 | 0.00 | 78 | 1012.3 |
| 20260506044058 | 63 | 178 | 8.0 | 15.0 | 0.00 | 0.00 | 0.00 | 77 | 1012.2 |
| 20260506043556 | 63 | 227 | 8.0 | 17.0 | 0.00 | 0.00 | 0.00 | 78 | 1012.2 |
| 20260506043101 | 63 | 209 | 9.0 | 16.0 | 0.00 | 0.00 | 0.00 | 78 | 1012.2 |
| 20260506042553 | 63 | 226 | 9.0 | 15.0 | 0.00 | 0.00 | 0.00 | 78 | 1012.1 |
| 20260506042051 | 63 | 214 | 8.0 | 15.0 | 0.00 | 0.00 | 0.00 | 77 | 1012.1 |
| 20260506041601 | 63 | 209 | 8.0 | 17.0 | 0.00 | 0.00 | 0.00 | 77 | 1012.1 |
| 20260506041052 | 63 | 208 | 8.0 | 16.0 | 0.00 | 0.00 | 0.00 | 77 | 1012.1 |
| 20260506040552 | 63 | 224 | 8.0 | 17.0 | 0.00 | 0.00 | 0.00 | 77 | 1012.1 |
| 20260506040150 | 63 | 219 | 10.0 | 18.0 | 0.00 | 0.00 | 0.00 | 77 | 1012.1 |
| 20260506035549 | 63 | 238 | 10.0 | 15.0 | 0.00 | 0.00 | 0.00 | 76 | 1012.1 |
| 20260506035049 | 64 | 236 | 9.0 | 21.0 | 0.00 | 0.00 | 0.00 | 76 | 1012.1 |
| 20260506034622 | 64 | 213 | 10.0 | 21.0 | 0.00 | 0.00 | 0.00 | 76 | 1012.0 |
| 20260506034048 | 63 | 212 | 10.0 | 20.0 | 0.00 | 0.00 | 0.00 | 76 | 1012.1 |
| 20260506033547 | 63 | 216 | 10.0 | 20.0 | 0.00 | 0.00 | 0.00 | 76 | 1012.1 |
| 20260506033049 | 63 | 214 | 9.0 | 19.0 | 0.00 | 0.00 | 0.00 | 76 | 1012.1 |
| 20260506032548 | 64 | 178 | 9.0 | 20.0 | 0.00 | 0.00 | 0.00 | 76 | 1012.1 |
| 20260506032047 | 64 | 228 | 10.0 | 20.0 | 0.00 | 0.00 | 0.00 | 76 | 1012.1 |
| 20260506031547 | 64 | 211 | 8.0 | 17.0 | 0.00 | 0.00 | 0.00 | 76 | 1012.2 |
| 20260506031047 | 64 | 217 | 11.0 | 20.0 | 0.00 | 0.00 | 0.00 | 75 | 1012.1 |
| 20260506030547 | 64 | 204 | 11.0 | 20.0 | 0.00 | 0.00 | 0.00 | 75 | 1012.1 |
| 20260506030046 | 64 | 215 | 10.0 | 20.0 | 0.00 | 0.00 | 0.00 | 75 | 1012.2 |
| 20260506025546 | 64 | 198 | 10.0 | 18.0 | 0.00 | 0.00 | 0.00 | 75 | 1012.2 |
| 20260506025050 | 64 | 227 | 9.0 | 18.0 | 0.00 | 0.00 | 0.00 | 75 | 1012.2 |
| 20260506024546 | 64 | 211 | 10.0 | 16.0 | 0.00 | 0.00 | 0.00 | 75 | 1012.1 |
| 20260506024046 | 64 | 229 | 10.0 | 17.0 | 0.00 | 0.00 | 0.00 | 75 | 1012.2 |
| 20260506023546 | 65 | 225 | 11.0 | 20.0 | 0.00 | 0.00 | 0.00 | 74 | 1012.2 |
| 20260506023104 | 65 | 242 | 10.0 | 24.0 | 0.00 | 0.00 | 0.00 | 74 | 1012.1 |
| 20260506022545 | 65 | 196 | 10.0 | 25.0 | 0.00 | 0.00 | 0.00 | 74 | 1012.2 |
| 20260506022045 | 65 | 228 | 13.0 | 25.0 | 0.00 | 0.00 | 0.00 | 74 | 1012.2 |
| 20260506021546 | 65 | 225 | 13.0 | 24.0 | 0.00 | 0.00 | 0.00 | 73 | 1012.2 |
| 20260506021045 | 65 | 227 | 10.0 | 25.0 | 0.00 | 0.00 | 0.00 | 74 | 1012.2 |
| 20260506020546 | 65 | 211 | 12.0 | 25.0 | 0.00 | 0.00 | 0.00 | 74 | 1012.3 |
| 20260506020046 | 65 | 199 | 12.0 | 20.0 | 0.00 | 0.00 | 0.00 | 74 | 1012.1 |
| 20260506015544 | 65 | 213 | 11.0 | 17.0 | 0.00 | 0.00 | 0.00 | 73 | 1012.1 |
| 20260506015045 | 65 | 216 | 11.0 | 21.0 | 0.00 | 0.00 | 0.00 | 73 | 1012.0 |
| 20260506014544 | 65 | 230 | 11.0 | 21.0 | 0.00 | 0.00 | 0.00 | 73 | 1012.0 |
| 20260506014043 | 65 | 177 | 13.0 | 23.0 | 0.00 | 0.00 | 0.00 | 73 | 1011.8 |
| 20260506013543 | 65 | 223 | 14.0 | 23.0 | 0.00 | 0.00 | 0.00 | 73 | 1011.9 |
| 20260506013043 | 65 | 229 | 12.0 | 22.0 | 0.00 | 0.00 | 0.00 | 73 | 1011.8 |
| 20260506012543 | 65 | 214 | 11.0 | 22.0 | 0.00 | 0.00 | 0.00 | 73 | 1011.9 |
| 20260506012045 | 65 | 221 | 11.0 | 25.0 | 0.00 | 0.00 | 0.00 | 73 | 1011.8 |
| 20260506011544 | 65 | 210 | 12.0 | 30.0 | 0.00 | 0.00 | 0.00 | 73 | 1011.7 |
| 20260506011042 | 65 | 219 | 11.0 | 25.0 | 0.00 | 0.00 | 0.00 | 73 | 1011.7 |